Погода в Поздеевке

Россия / Амурская область     50°35′20″N   128°53′05″E
темп.,
°C
ветер,
м/с
пор.,
м/с
влажн.,
%
обл.,
%
осадки,
мм/ч
давл.,
гПа
погр.,
м
2 августа, пн
пн200:00+16сз3399100 3.8 1006204
03:00+14сз2497100 4.5 1006163
06:00+14ссз3496100 0.4 1008175
09:00+15с2391100 0.4 1009192
12:00+16с4587100 0.0 1009353
15:00+18св3483100 0.0 1009360
18:00+19св3385100 0.0 1009373
21:00+16ссв359498 0.0 1010104
3 августа, вт
вт300:00+16ссв2498100 1.5 1009113
03:00+17ссв3799100 12.3 1008218
06:00+17с4999100 16.8 1008318
09:00+17ссв41099100 28.2 1007434
12:00+19св5798100 1.6 1007312
15:00+19ссв5797100 1.7 1005276
18:00+20ссв5898100 3.6 1004300
21:00+20всв4799100 15.1 1003206
4 августа, ср
ср400:00+20ю5998100 0.6 1002340
03:00+18ююз499897 0.6 1002413
06:00+18ю5996100 0.0 1002442
09:00+18ю5894100 0.1 1002549
12:00+17ю4895100 0.1 1002474
15:00+17ю4896100 0.2 1001496
18:00+17ю4797100 0.1 1000422
21:00+17ю4798100 0.3 1000389
5 августа, чт
чт500:00+16ю4998100 0.3 1000338
03:00+17ююв259976 1.1 999200
06:00+17ю3899100 0.2 999355
09:00+19юз349491 0.9 999432
12:00+21юз468596 0.5 999792
15:00+23юз4475100 0.6 9981062
18:00+23вюв238296 0.0 997169
21:00+19ююв3996100 6.3 997173
6 августа, пт
пт600:00+18юв2499100 4.9 997133
03:00+16юв51198100 4.9 997405
06:00+17ююв4897100 0.1 997453
09:00+18ю5792100 0.4 997596
12:00+19ююз4694100 0.2 998490
15:00+20зюз3490100 0.6 998495
18:00+20з238829 0.0 999439
21:00+17зсз119621 0.1 99912